Springfield, OH

1:45 PM EST on November 21, 2017 (GMT -0500)
Springfield-Beckley Municipal

Weather History for KSGH - October, 2012

Change the Weather History Date:

Sunday, October 7, 2012

  Actual Average (KFFO) Record (KFFO)
Temperature  
Mean Temperature 42 °F -  
Max Temperature 47 °F 66 °F 89 °F (2007)
Min Temperature 36 °F 43 °F 30 °F (2001)
Degree Days  
Heating Degree Days 22    
Moisture  
Dew Point 33 °F    
Average Humidity 68    
Maximum Humidity 82    
Minimum Humidity 56    
Precipitation  
Precipitation 0.00 in - - ()
Sea Level Pressure  
Sea Level Pressure 30.17 in    
Wind  
Wind Speed 5 mph (WNW)    
Max Wind Speed 10 mph    
Max Gust Speed -    
Visibility 8 miles    
Events      
Averages and records for this station are not official NWS values.
T = Trace of Precipitation, MM = Missing Value Source: NWS Daily Summary

Daily Weather History Graph

Daily Weather History Graph

Search for Another Location

Airport or City:

Trip Planner

Search our weather history database for the weather conditions in past years. The results will help you decide how hot, cold, wet, or windy it might be!

Date:

Astronomy

Oct. 07, 2012 Rise Set
Actual Time 7:38 AM EDT 7:07 PM EDT
Civil Twilight 7:10 AM EDT 7:34 PM EDT
Nautical Twilight 6:39 AM EDT 8:05 PM EDT
Astronomical Twilight 6:08 AM EDT 8:36 PM EDT
Moon No Moon Rise 2:14 PM EDT (10/7)
Length of Visible Light 12h 23m
Length of Day
11h 29m
Waning Gibbous, 56% of the Moon is Illuminated
Oct 7
Waning Gibbous
Oct 8
Last Quarter
Oct 15
New
Oct 21
First Quarter
Oct 29
Full

Hourly Weather History & Observations

Time (EDT) Temp. Windchill Dew Point Humidity Pressure Visibility Wind Dir Wind Speed Gust Speed Precip Events Conditions
12:56 AM 41.9 °F 38.2 °F 32.0 °F 68% 30.15 in 9.0 mi North 5.8 mph - N/A   Clear
1:56 AM 41.9 °F 39.0 °F 32.0 °F 68% 30.14 in 9.0 mi North 4.6 mph - N/A   Overcast
2:56 AM 41.0 °F 38.0 °F 32.9 °F 73% 30.14 in 9.0 mi NNW 4.6 mph - N/A   Overcast
3:56 AM 41.0 °F - 32.9 °F 73% 30.14 in 9.0 mi Calm Calm - N/A   Overcast
4:56 AM 41.0 °F 39.0 °F 34.0 °F 76% 30.13 in 9.0 mi NW 3.5 mph - N/A   Overcast
5:56 AM 41.0 °F 39.0 °F 34.0 °F 76% 30.13 in 9.0 mi WNW 3.5 mph - N/A   Overcast
6:56 AM 41.0 °F - 34.0 °F 76% 30.14 in 8.0 mi Calm Calm - N/A   Overcast
7:56 AM 39.9 °F 37.8 °F 34.0 °F 79% 30.14 in 8.0 mi NW 3.5 mph - N/A   Overcast
8:56 AM 41.0 °F 38.0 °F 34.9 °F 79% 30.16 in 7.0 mi WNW 4.6 mph - N/A   Partly Cloudy
9:56 AM 41.9 °F 39.0 °F 34.0 °F 73% 30.17 in 7.0 mi West 4.6 mph - N/A   Clear
10:56 AM 43.0 °F 38.8 °F 32.0 °F 65% 30.17 in 8.0 mi West 6.9 mph - N/A   Partly Cloudy
11:56 AM 45.0 °F 41.2 °F 32.0 °F 60% 30.17 in 8.0 mi Variable 6.9 mph - N/A   Scattered Clouds
12:56 PM 43.9 °F 38.8 °F 32.0 °F 63% 30.19 in 6.0 mi WNW 9.2 mph - N/A   Haze
1:01 PM 42.8 °F 37.5 °F 33.8 °F 70% 30.18 in 5.0 mi West 9.2 mph - N/A   Haze
1:48 PM 42.8 °F 39.3 °F 33.8 °F 70% 30.17 in 7.0 mi WNW 5.8 mph - N/A   Mostly Cloudy
1:56 PM 43.9 °F 39.3 °F 32.9 °F 65% 30.19 in 8.0 mi WNW 8.1 mph - N/A   Partly Cloudy
2:56 PM 47.8 °F - 32.9 °F 56% 30.17 in 7.0 mi Variable 4.6 mph - N/A   Overcast
3:56 PM 45.9 °F 40.8 °F 31.1 °F 56% 30.17 in 7.0 mi WSW 10.4 mph - N/A   Overcast
4:56 PM 45.9 °F 42.3 °F 32.0 °F 58% 30.16 in 7.0 mi West 6.9 mph - N/A   Overcast
5:56 PM 45.9 °F 41.2 °F 31.1 °F 56% 30.17 in 8.0 mi West 9.2 mph - N/A   Overcast
6:56 PM 45.0 °F 40.6 °F 31.1 °F 58% 30.18 in 8.0 mi West 8.1 mph - N/A   Overcast
7:56 PM 43.9 °F 41.3 °F 32.0 °F 63% 30.19 in 5.0 mi WSW 4.6 mph - N/A   Haze
8:56 PM 43.0 °F 41.3 °F 32.9 °F 68% 30.20 in 9.0 mi West 3.5 mph - N/A   Overcast
9:56 PM 38.8 °F 35.4 °F 32.0 °F 76% 30.21 in 9.0 mi SW 4.6 mph - N/A   Mostly Cloudy
10:56 PM 38.8 °F 36.5 °F 30.0 °F 71% 30.21 in 9.0 mi WSW 3.5 mph - N/A   Partly Cloudy
11:56 PM 36.0 °F 33.3 °F 31.1 °F 82% 30.22 in 8.0 mi West 3.5 mph - N/A   Scattered Clouds